Regional Weather Roundup
Issued by NWS

Home | Current Version | Previous Version | Graphics & Text | Print | Product List | Glossary On
Versions: 1 2 3 4 5 6 7 8 9 10 11 12 13 14 15 16 17 18 19 20 21 22 23 24 25 26 27 28 29 30 31 32 33 34 35 36 37 38 39 40 41 42 43 44 45 46 47 48 49 50
925
ASUS43 KDTX 230110
RWRMI
MICHIGAN HOURLY REGIONAL WEATHER ROUNDUP
NATIONAL WEATHER SERVICE DETROIT/PONTIAC MI
ISSUED BY NATIONAL WEATHER SERVICE GRAND RAPIDS MI
900 PM EDT MON MAY 22 2017

NOTE: "FAIR" INDICATES FEW OR NO CLOUDS BELOW 12,000 FEET WITH NO
SIGNIFICANT WEATHER AND/OR OBSTRUCTION TO VISIBILITY.

MIZ047>049-052>055-059>063-066>070-074>076-081>083-230200-
SOUTHEAST LOWER MICHIGAN

CITY           SKY/WX    TMP DP  RH WIND       PRES   REMARKS
ADRIAN         CLEAR     63  47  55 SW5       29.98S
ALMA           CLOUDY    61  47  60 CALM      29.91F
ANN ARBOR      CLEAR     60  48  64 S7        29.96S
BAD AXE        PTCLDY    60  43  53 SW7       29.93R
DETROIT CITY   CLEAR     65  46  50 SW7       29.96R
DETROIT        PTCLDY    66  46  48 SW9       29.97R
FLINT          CLOUDY    63  46  54 CALM      29.94S
GROSSE ILE     CLEAR     65  46  51 SW3       29.96S
HILLSDALE      CLEAR     61  45  55 S7        29.98R
HOWELL         MOCLDY    63  44  50 CALM      29.95S

CITY           SKY/WX    TMP DP  RH WIND       PRES   REMARKS
JACKSON        PTCLDY    63  46  54 S9        29.96S
LANSING        MOCLDY    64  45  49 S6        29.94S
MASON          MOCLDY    63  52  68 CALM      29.94F
MONROE         CLEAR     64  47  54 SW5       29.97R
MT. CLEMENS    PTCLDY    64  46  51 SW5       29.94R
PONTIAC        MOCLDY    64  45  49 SW5       29.95R
PORT HOPE        N/A     62  45  53 SW5       29.90R
PORT HURON     CLEAR     61  43  51 CALM      29.95S
TRI CITIES     CLOUDY    62  48  60 SW5       29.92S
YPSILANTI      PTCLDY    65  49  56 SW7       29.97R
$$
MIZ043>046-050>051-056>058-064>065-071>073-077>080-230200-
SOUTHWEST LOWER MICHIGAN

CITY           SKY/WX    TMP DP  RH WIND       PRES   REMARKS
BATTLE CREEK   PTCLDY    64  47  53 S9        29.94F
BENTON HARBOR  CLOUDY    70  42  36 SW12      29.91S
BIG RAPIDS     LGT RAIN  54  49  85 W3        29.90S
COLDWATER      PTCLDY    64  46  52 S6        29.97R
HOLLAND        CLOUDY    65  47  52 S7        29.90F
GRAND RAPIDS   CLOUDY    62  49  62 S8        29.90F
KALAMAZOO      MOCLDY    67  44  43 S15       29.94S
MARSHALL       PTCLDY    63  47  57 S6        29.94S
MOUNT PLEASANT CLOUDY    61  45  56 W3        29.91S
MUSKEGON       CLOUDY    65  44  46 S13       29.88S
STURGIS        MOCLDY    64  49  56 S9        29.96R
$$
MIZ016>042-230200-
NORTHERN LOWER MICHIGAN

CITY           SKY/WX    TMP DP  RH WIND       PRES   REMARKS
ALPENA         LGT RAIN  57  43  59 CALM      29.87F
BEAVER ISLAND  LGT RAIN  47  45  94 SW7       29.85S
BELLAIRE       CLEAR     61  45  55 S3        29.82S
CADILLAC       CLEAR     57  44  61 S13       29.86F
CHARLEVOIX     CLOUDY    59  46  61 CALM      29.84S
GAYLORD        CLEAR     58  42  55 SW6       29.84F
HOUGHTON LAKE  PTCLDY    59  45  59 SW12      29.88F
MANISTEE       PTCLDY    59  47  64 S9        29.85R
OSCODA         CLEAR     60  40  47 SW3       29.88S
PELLSTON       LGT RAIN  55  47  74 NE6       29.83F
TRAVERSE CITY  PTCLDY    63  45  51 SW9       29.81F
LUDINGTON      CLOUDY    58  49  71 S9        29.87R
$$
MIZ007>008-015-230200-
EASTERN UPPER MICHIGAN

CITY           SKY/WX    TMP DP  RH WIND       PRES   REMARKS
KINROSS        CLOUDY    52  45  77 CALM      29.85S
MACKINAC ISLAN LGT RAIN  51  44  79 N3        29.84S
NEWBERRY       CLOUDY    49  45  84 SW6       29.83S
S. S. MARIE    CLOUDY    50  47  89 CALM      29.85S
$$
MIZ004>006-011>014-085-230200-
CENTRAL UPPER MICHIGAN

CITY           SKY/WX    TMP DP  RH WIND       PRES   REMARKS
MANISTIQUE     LGT RAIN  46  43  89 SW3       29.83S
ESCANABA       CLOUDY    50  48  93 CALM      29.83R
MENOMINEE      LGT RAIN  54  50  86 CALM      29.83R
SAWYER-GWINN   CLOUDY    48  43  81 N5        29.84R
$$
MIZ001>003-009>011-084-230200-
WESTERN UPPER MICHIGAN

CITY           SKY/WX    TMP DP  RH WIND       PRES   REMARKS
IRON MOUNTAIN  PTCLDY    54  40  59 NW7       29.82R
HOUGHTON       CLOUDY    52  42  69 W15G21    29.80R
COPPER HARBOR    N/A     52  43  71 VRB3      29.79R
IRONWOOD       CLOUDY    52  44  74 W5        29.83S
$$

ABBREVIATIONS USED IN REMARKS
   TC - TEMPERATURE IN CELSIUS
  WCI - WIND CHILL INDEX
   HX - HEAT INDEX
  VSB - VISIBILITY





USA.gov is the U.S. government's official web portal to all federal, state and local government web resources and services.